Flag for U.S.A. Weather past 2 weeks in Vincennes, Indiana, U.S.A.

Now
75 °F

Sunny.


Feels Like: 74 °F
Forecast: 73 / 91 °F
Wind: No wind

Location: Lawrenceville-Vincennes International Airport

Current Time: Aug 20, 2014 at 9:27:09 PM

Latest Report: Aug 20, 2014 at 8:53 PM


Visibility: 10 mi

Pressure: 29.96 "Hg

Humidity: 90%

Dew point: 72 °F

Location of VincennesLocation

Historic Weather in Vincennes — Graph

°F

Vincennes temperature yesterday

Maximum temperature yesterday: 85 °F (at 1:53 PM)
Minimum temperature yesterday: 66 °F (at 6:53 AM)
Average temperature yesterday: 76 °F

Past Weeks' High & Low Weather Summary

 TemperatureHumidityPressure
High85 °F (Aug 19, 1:53 PM)100% (Aug 6, 5:53 AM)30.10 "Hg (Aug 6, 5:53 AM)
Low57 °F (Aug 13, 4:53 AM)44% (Aug 13, 4:53 PM)29.78 "Hg (Aug 19, 4:53 PM)
Average72 °F85%29.95 "Hg
* Reported Aug 5 7:53 PM — Aug 20 7:53 PM, Vincennes, Weather by CustomWeather, © 2014

Note: Actual official high and low records may vary slightly from our data, if they occured in-between our weather recording intervals... More about our weather records

Advertising

Vincennes weather history for previous 24 hours

 ConditionsComfort  
Time TempWeatherWind HumidityBarometerVisibility
7:53 PM
Aug 20
79 °FSunny.3 mph77%29.94 "Hg10 mi
6:53 PM80 °FSunny.7 mph74%29.93 "Hg10 mi
5:53 PM78 °FSunny.6 mph76%29.94 "Hg10 mi
4:53 PM77 °FSunny.6 mph82%29.93 "Hg10 mi
3:53 PM75 °FPassing clouds.7 mph88%29.99 "Hg10 mi
2:53 PM71 °FLight rain. Partly sunny.No wind87%30.02 "Hg7 mi
1:53 PM77 °FThundershowers. Broken clouds.7 mph88%30.01 "Hg10 mi
12:53 PM79 °FLight rain. Passing clouds.8 mph84%29.99 "Hg8 mi
11:53 AM82 °FSunny.3 mph74%29.93 "Hg10 mi
10:53 AM82 °FSunny.5 mph79%29.93 "Hg10 mi
9:53 AM77 °FSunny.5 mph88%29.92 "Hg9 mi
8:53 AM73 °FSunny.No wind94%29.90 "Hg7 mi
8:03 AM70 °FFog.5 mph97%29.91 "Hg4 mi
7:53 AM70 °FFog.5 mph97%29.89 "Hg2 mi
6:59 AM69 °FFog.3 mph96%29.90 "Hg1 mi
5:53 AM70 °FFog.No wind97%29.86 "Hg5 mi
4:53 AM70 °FFog.3 mph97%29.84 "Hg4 mi
3:53 AM71 °FFog.No wind96%29.84 "Hg5 mi
2:53 AM73 °FClear.5 mph97%29.84 "Hg7 mi
1:53 AM75 °FClear.5 mph94%29.84 "Hg8 mi
12:53 AM76 °FFog.7 mph97%29.83 "Hg5 mi
11:53 PM
Aug 19
75 °FFog.5 mph96%29.83 "Hg3 mi
10:53 PM75 °FFog.6 mph96%29.81 "Hg4 mi
9:53 PM76 °FFog.5 mph94%29.79 "Hg5 mi
Weather by CustomWeather, © 2014

See weather overviewHow to use our weather pages